RH
24 35 34 34 36 31 24 22 23 25 16 25 30 28 27 26 27 26 26 34 41 29 27 23 22 23 23 24 23 23 20 26 27 26 35 27 29 23 21 24 24 24 25 25 26
22 26 34 34 34 29 21 19 22 18 23 28 29 32 30 25 20 22 30 30 28 25 29 21 19 19 20 23 22 21 25 31 24 27 32 30 29 27 27 27 25 23 23 24 24
24 22 32 32 31 24 20 18 16 21 26 28 32 33 32 32 17 21 23 24 24 24 25 28 20 18 23 21 22 28 29 28 28 27 26 29 29 26 28 31 26 27 24 24 24
32 32 32 30 29 22 18 17 22 28 31 30 28 26 23 24 24 20 22 22 23 21 23 19 17 20 24 24 22 29 27 28 31 28 26 29 25 26 26 27 24 26 26 25 25
34 34 31 27 29 21 17 19 25 26 28 28 24 23 21 16 19 20 21 21 22 20 21 18 18 20 22 22 23 29 29 28 28 26 26 24 26 26 27 23 24 25 26 26 28
38 33 31 27 28 21 16 19 23 28 26 22 18 18 17 21 23 19 21 22 22 20 20 19 19 18 22 25 26 27 27 26 25 27 27 28 26 22 24 20 21 22 24 27 29
34 30 27 28 27 24 22 26 28 26 21 21 21 18 16 20 20 18 21 22 22 23 20 22 21 18 19 28 23 23 29 27 28 27 28 26 30 27 21 19 21 22 23 28 31
34 28 27 28 25 25 26 26 25 24 25 20 19 16 20 20 20 18 19 22 22 22 23 23 19 21 21 20 21 21 23 27 29 28 28 30 41 27 22 21 23 22 23 26 29
31 29 28 24 22 23 25 25 26 27 24 21 20 16 20 20 20 21 21 21 20 19 19 19 18 20 20 21 24 24 26 28 33 26 28 28 36 28 24 23 24 23 23 25 27
32 26 24 22 23 25 30 27 23 22 21 20 18 13 17 21 23 22 20 22 20 17 14 17 17 18 18 20 21 21 26 29 32 30 27 31 32 29 28 25 25 24 24 26 28
35 31 26 26 29 28 24 22 16 15 21 24 24 20 19 20 19 20 23 18 17 16 17 20 17 24 24 25 23 23 22 28 34 32 32 32 32 32 29 26 26 26 26 28 29
36 35 34 33 29 30 26 18 26 20 22 23 22 21 24 22 18 18 20 16 18 19 20 16 25 26 24 26 23 22 22 30 37 31 30 34 35 32 31 31 30 29 31 32 31
37 37 35 29 26 24 32 36 24 21 18 21 22 20 20 19 24 23 22 22 19 21 19 21 27 24 23 23 21 21 20 27 25 37 31 34 39 39 33 31 30 30 30 30 34
36 36 31 25 25 26 39 35 34 20 16 23 21 20 20 22 25 27 26 24 23 24 24 26 25 26 24 27 26 23 28 26 31 33 31 32 28 38 33 33 29 28 30 31 36
34 35 32 26 27 26 38 36 36 20 18 22 22 21 22 24 28 23 29 19 26 27 24 31 28 27 25 29 27 22 30 31 35 32 34 38 38 42 33 35 28 29 31 31 35
34 33 33 29 28 35 35 33 22 17 27 24 24 26 22 27 30 28 26 24 26 24 24 30 28 29 29 29 28 28 24 31 33 32 33 34 34 37 37 33 29 28 28 30 35
39 36 33 30 40 35 34 24 21 22 27 27 28 27 30 32 31 33 34 36 32 25 26 28 30 30 30 26 26 18 16 17 20 20 18 34 35 36 34 30 31 33 30 30 38
36 35 37 40 41 36 26 20 23 30 28 30 29 30 30 34 36 35 34 31 36 35 30 30 23 33 28 29 32 29 23 17 23 19 17 31 25 32 29 29 29 29 30 32 42
39 38 46 52 42 30 21 22 26 28 28 29 28 29 32 34 32 33 38 39 42 41 32 28 29 33 29 26 30 25 22 30 21 23 24 20 33 34 32 26 30 30 32 38 49
31 40 50 46 34 29 24 40 37 38 35 30 28 32 30 34 31 32 36 46 43 41 41 38 29 34 31 30 26 23 25 19 14 20 22 17 20 25 36 29 31 31 36 43 50
32 34 46 39 29 25 27 39 40 41 36 31 32 35 35 35 37 38 41 47 43 39 31 34 35 29 29 30 31 28 22 21 20 22 20 20 20 26 28 32 34 34 40 50 52
43 39 46 35 30 44 35 38 41 40 37 37 35 36 35 39 40 42 40 44 39 37 31 32 32 26 27 27 23 28 22 19 17 16 20 27 21 24 26 31 35 35 42 49 52
48 49 39 33 30 43 51 48 46 40 45 38 40 39 38 41 42 47 48 44 33 28 28 28 28 21 26 32 23 24 23 23 21 22 19 20 18 29 26 29 29 38 48 51 52
46 43 41 45 47 38 43 44 47 46 44 43 42 39 39 41 46 51 50 53 33 40 44 34 30 27 22 22 23 27 27 25 23 21 19 20 17 22 23 31 31 42 50 50 51
50 48 52 41 42 40 40 43 44 44 42 41 42 40 39 42 42 46 52 49 36 40 32 29 33 30 25 27 30 28 26 26 28 21 24 20 27 24 29 33 37 46 52 55 54
48 47 50 50 46 39 46 41 42 50 41 41 41 42 39 40 40 39 45 42 38 31 32 34 30 30 23 30 31 30 24 26 27 28 29 28 28 26 27 29 36 49 59 62 58
57 50 41 62 47 36 41 44 43 42 47 47 41 39 40 40 37 39 36 34 32 31 33 32 27 20 28 22 21 24 21 25 26 25 25 26 24 28 30 35 50 60 64 63 50
Wind_Speed
3 3 4 6 6 9 9 10 13 15 16 16 17 19 20 19 16 12 13 6 5 9 8 4 6 4 7 5 6 2 5 9 5 5 8 3 6 15 19 22 26 16 16 13 14
3 3 4 5 7 10 11 13 16 17 18 19 16 12 9 9 14 21 10 9 8 9 5 8 8 8 5 5 5 5 9 6 7 10 13 14 16 10 11 17 18 18 18 16 18
3 3 4 4 9 12 14 16 18 18 17 12 7 3 1 3 6 9 12 8 8 8 5 3 3 6 11 10 6 8 6 12 17 21 22 24 22 6 4 15 15 15 14 17 20
3 3 2 7 12 14 16 17 17 15 12 7 6 6 6 2 4 7 9 7 8 8 2 5 3 4 6 9 6 10 11 11 9 9 10 14 14 23 20 12 12 13 14 18 22
3 4 7 13 15 15 17 17 15 12 8 5 4 3 3 10 7 9 7 8 8 7 9 5 9 7 8 12 21 19 15 18 21 22 21 21 18 16 17 11 12 13 16 19 20
4 6 12 16 17 17 17 15 12 9 9 8 10 7 3 17 7 8 6 8 9 8 10 8 7 12 11 9 9 18 25 21 14 14 12 17 14 4 10 8 11 13 15 17 20
7 11 16 18 18 17 16 13 10 11 14 7 4 8 22 10 7 6 7 9 11 7 6 8 5 3 8 19 22 24 20 15 6 6 18 8 16 10 6 8 12 12 12 15 17
10 15 18 18 18 17 14 14 15 10 6 6 7 11 7 3 12 11 6 8 11 9 9 7 11 11 5 19 10 7 7 5 9 5 1 9 5 6 4 8 10 11 11 12 17
12 13 16 18 19 19 17 13 11 6 7 5 5 4 5 5 8 11 10 4 5 8 10 7 7 8 11 9 6 5 1 4 6 7 4 4 9 8 4 7 9 10 11 11 13
13 16 19 21 20 18 15 15 11 4 5 4 8 5 6 5 5 8 6 5 4 2 2 7 5 7 5 5 2 2 4 4 2 6 10 11 13 9 6 6 9 10 11 13 14
14 16 18 17 16 20 14 4 4 6 16 7 5 6 3 5 9 13 7 3 2 6 5 8 8 8 7 6 3 3 4 5 4 3 3 7 12 9 6 6 8 9 11 13 14
14 15 16 14 13 6 4 3 4 7 11 8 5 5 5 4 3 20 16 2 4 5 1 6 12 6 3 3 4 4 3 3 4 4 2 9 9 7 5 5 6 8 10 12 14
14 14 13 10 7 6 9 9 9 5 4 5 4 5 4 7 7 13 13 3 10 14 12 10 5 5 5 7 3 2 2 2 6 6 3 9 7 10 7 4 2 5 7 10 13
14 12 9 7 4 9 4 6 3 1 2 8 7 6 6 1 5 7 10 4 3 5 5 7 5 4 3 4 5 4 1 9 6 9 3 9 3 11 9 4 1 4 8 11 12
13 11 7 3 9 3 5 3 1 1 1 6 4 4 8 5 4 12 6 6 7 4 3 3 4 7 5 4 5 4 4 0 6 6 4 8 5 6 8 6 3 7 10 12 12
11 11 9 6 5 7 6 1 1 3 4 2 4 5 1 8 4 6 5 8 1 5 11 4 1 3 5 4 3 5 2 4 4 3 4 5 4 6 6 3 3 7 10 13 13
10 10 7 4 3 7 2 2 3 2 0 2 3 3 5 7 5 9 7 12 4 1 3 2 4 2 4 4 3 10 5 2 3 3 4 4 5 4 8 3 6 10 13 13 12
9 9 9 8 7 5 0 3 2 1 1 2 1 4 4 6 4 5 2 4 9 4 3 4 3 6 8 4 4 6 6 4 6 6 8 3 4 5 6 3 3 8 11 11 12
11 9 6 6 4 2 3 1 3 2 3 5 3 1 2 2 2 2 6 3 5 8 3 3 2 2 4 5 3 3 3 3 5 2 4 1 3 5 5 1 6 10 13 13 12
3 4 5 4 3 1 1 3 2 1 1 1 0 2 1 3 1 1 1 2 1 4 4 1 2 1 1 2 6 3 2 3 0 6 9 4 4 2 7 5 10 13 14 13 12
1 3 3 3 4 3 2 3 3 1 1 2 2 3 2 1 2 2 2 2 0 1 2 0 2 3 2 1 2 1 1 2 2 3 4 7 4 6 5 5 10 12 12 12 12
2 2 4 2 2 2 3 3 2 2 2 2 3 3 2 2 2 2 2 2 1 1 1 1 2 3 1 3 2 1 1 2 3 1 3 4 4 8 5 7 7 12 12 12 9
2 2 5 2 3 3 2 3 3 2 2 2 2 2 1 2 1 1 2 2 1 1 1 1 1 4 4 4 3 3 2 1 1 2 10 4 4 5 3 7 11 13 13 11 11
2 3 2 3 2 6 6 4 4 2 2 3 3 2 2 2 3 4 3 2 1 1 4 1 2 4 5 4 2 4 5 6 6 4 3 10 14 1 9 11 13 12 12 10 11
3 2 2 4 3 5 3 4 5 4 2 0 2 1 2 2 2 2 2 3 1 1 1 1 3 3 8 6 4 7 9 9 12 11 7 4 7 12 6 10 11 9 9 11 13
2 3 2 3 5 7 0 4 5 4 1 2 2 4 2 1 1 2 5 4 1 3 1 0 1 2 4 1 4 7 10 11 12 12 14 16 13 3 6 8 11 11 8 12 13
3 2 1 1 3 3 3 6 6 9 2 4 4 4 3 2 3 5 6 6 4 2 3 1 1 2 3 2 9 7 6 10 4 6 6 6 5 4 8 11 11 7 7 12 12
Wind_Direction
81 102 90 92 111 114 107 116 127 127 125 119 110 103 96 91 73 72 52 1 354 10 12 346 19 22 63 68 46 267 108 90 80 98 130 137 86 71 76 74 65 68 61 44 31
90 139 115 95 122 120 123 128 130 129 126 122 115 104 101 93 70 56 20 24 22 18 14 37 54 53 72 52 41 65 87 57 45 92 107 82 83 90 85 61 60 60 55 45 39
91 145 126 110 137 132 119 123 128 128 129 126 116 68 95 155 73 22 6 13 13 18 43 39 36 64 70 60 33 26 82 98 81 99 98 91 73 74 82 53 49 51 42 40 40
85 121 126 142 140 128 125 129 129 128 128 117 98 84 77 116 70 349 2 19 29 32 45 53 78 73 79 74 66 99 50 89 100 105 92 77 87 74 70 82 66 60 53 46 40
49 101 134 143 140 136 133 132 130 127 116 100 100 114 86 88 59 344 13 31 36 44 46 51 68 81 93 105 91 88 88 87 103 98 95 99 83 83 70 70 70 66 58 49 43
66 124 140 141 143 138 132 133 129 120 106 103 85 85 87 76 332 355 64 50 49 50 50 47 74 93 75 43 43 114 111 115 111 99 98 95 66 72 61 80 78 65 53 47 41
86 122 136 140 141 136 132 130 123 114 115 97 32 84 62 39 17 52 72 58 50 48 64 49 65 73 101 96 119 123 115 124 130 111 136 101 53 77 80 82 68 63 57 47 38
99 119 134 138 137 135 132 124 120 116 97 64 63 64 74 41 32 60 51 64 60 76 72 73 86 85 68 124 144 142 160 159 59 180 357 206 118 97 83 88 70 57 50 42 36
104 120 128 132 131 128 125 116 114 92 63 52 40 59 69 10 24 15 34 42 82 68 61 66 66 83 138 158 156 182 128 126 134 21 196 222 143 133 121 98 75 56 48 38 29
109 118 126 128 126 125 119 110 94 61 9 37 30 125 43 11 348 350 19 45 38 29 57 38 66 115 88 235 322 137 156 110 165 61 85 112 128 130 117 88 69 52 41 32 23
120 121 127 129 129 127 122 118 143 77 44 50 56 71 29 345 53 18 355 324 33 57 67 35 78 59 15 355 7 101 121 129 126 121 78 124 140 139 120 86 61 43 31 21 15
131 129 130 120 129 126 99 76 75 130 84 50 65 74 43 350 42 15 13 48 26 80 34 109 59 18 14 31 141 135 127 90 118 132 220 158 159 156 157 85 54 29 23 12 3
142 135 135 124 123 66 104 113 120 120 82 41 32 35 2 20 43 359 4 32 63 65 66 75 24 358 30 62 139 127 319 205 312 149 90 162 200 189 175 162 59 35 10 5 5
153 146 136 126 116 120 75 119 122 138 126 15 7 39 357 36 65 17 13 0 63 92 67 66 39 39 68 69 331 249 62 300 202 190 318 204 304 192 179 172 254 358 2 357 355
162 158 135 105 137 117 145 115 105 199 168 6 23 345 35 60 334 26 6 66 58 57 275 66 34 27 37 360 341 6 338 159 185 218 236 196 258 96 173 223 310 5 356 353 350
156 162 145 101 88 134 137 57 222 226 88 59 357 356 70 32 43 321 28 51 59 69 64 82 66 18 350 300 296 333 219 115 141 219 245 95 262 135 179 195 341 351 344 350 352
144 160 163 135 114 152 147 276 247 27 192 75 21 25 74 22 46 23 40 45 25 213 55 121 51 27 5 301 200 345 304 284 248 249 327 154 228 57 142 91 8 339 338 347 347
126 145 105 103 126 142 141 258 61 48 72 87 158 73 69 358 51 31 61 65 49 9 73 359 162 12 356 34 331 10 356 8 313 318 314 161 246 110 143 66 359 342 344 346 344
127 103 75 54 114 120 241 34 62 129 113 155 139 119 99 89 33 75 47 44 19 5 19 327 144 123 61 35 318 41 19 353 280 253 260 78 121 156 175 348 339 340 350 353 347
132 88 45 48 90 33 76 87 90 45 109 174 118 341 110 40 163 78 70 38 52 12 311 84 267 72 64 213 60 8 85 259 328 312 321 274 277 21 182 336 340 349 352 352 345
119 102 14 46 67 53 79 86 126 68 348 3 127 124 88 108 52 92 89 127 60 26 348 296 275 129 221 21 358 201 202 65 290 274 298 312 7 99 94 3 344 348 354 346 352
116 110 344 53 78 35 99 106 132 114 51 82 81 82 89 126 103 111 113 56 160 311 355 31 302 271 52 112 262 312 322 276 293 67 255 291 305 135 62 8 346 347 356 353 357
91 97 14 28 142 109 131 92 67 119 52 89 94 35 68 107 146 114 136 118 26 133 79 133 211 296 177 167 170 247 178 146 38 272 247 284 1 169 328 337 357 356 350 351 353
155 122 65 64 23 132 145 132 112 41 92 75 115 111 132 108 34 151 153 149 64 83 77 241 280 272 294 323 0 241 218 209 232 259 315 255 298 226 337 342 348 354 348 345 347
7 96 3 155 141 123 96 125 137 143 73 117 106 108 148 133 161 160 143 155 154 110 57 302 276 266 270 279 249 269 260 228 224 247 255 339 289 321 347 339 349 343 346 349 346
154 147 91 77 114 125 226 166 151 140 170 172 170 130 100 128 344 204 175 205 185 156 204 46 232 288 273 194 245 270 257 249 244 258 260 275 288 75 335 328 339 348 346 344 342
142 120 122 350 137 176 149 157 168 139 56 35 127 124 111 81 89 76 69 71 95 163 162 226 227 308 275 279 301 263 248 206 198 223 256 267 1 346 323 340 341 338 350 340 339